FW2912 Grou NL current weather conditions

sailwx.info

Wind from 180 at 4 knots gusting 6

Air temperature 4.4° C
Dewpoint -47.3° C

Last reported at 2019-Dec-11 18:55 UTC.
Time now 2019-Dec-11 20:04 UTC

Location: N 53°06' E 005°51'.
View on Google Maps.

See reports from other nearby stations

  
Tides and Currents Weather Stations Pressure Air Temp Water Temp Dewpoint Dewpoint Depression Visibility Wind Speed Wind Dir Waves Ship Positions
date/time (UTC)wind fromknots sea level pressurealtimeterstation pressurevisibilityair tempwater tempwave heightnotes
2019-Dec-11 18:55 180 4 gusting 6 4.4
2019-Dec-11 18:45 158 5 gusting 6 4.4
2019-Dec-11 18:35 180 5 gusting 7 4.4
2019-Dec-11 18:25 180 5 gusting 7 4.4
2019-Dec-11 18:15 180 4 gusting 6 4.4
2019-Dec-11 18:05 180 4 gusting 6 5.0
2019-Dec-11 17:55 203 4 gusting 6 5.0
2019-Dec-11 17:45 203 4 gusting 7 5.0
2019-Dec-11 17:35 203 4 gusting 6 5.0
2019-Dec-11 17:25 180 4 gusting 6 5.0
2019-Dec-11 17:15 180 4 gusting 6 5.0
2019-Dec-11 17:05 180 4 gusting 6 5.0
2019-Dec-11 16:55 180 3 gusting 5 5.6
2019-Dec-11 16:45 180 4 gusting 8 5.6
2019-Dec-11 16:35 203 3 gusting 6 5.6
2019-Dec-11 16:25 203 3 gusting 5 5.0
2019-Dec-11 16:15 180 3 gusting 5 5.0
2019-Dec-11 16:05 203 2 gusting 4 5.0
2019-Dec-11 15:55 203 3 gusting 5 5.6
2019-Dec-11 15:45 203 2 gusting 4 5.6
2019-Dec-11 15:35 203 1 gusting 2 5.6
2019-Dec-11 15:25 203 2 gusting 3 5.6
2019-Dec-11 15:15 203 1 gusting 2 5.6
2019-Dec-11 15:05 203 2 gusting 4 5.6
2019-Dec-11 14:55 203 2 gusting 4 6.1
2019-Dec-11 14:45 203 3 gusting 6 6.1
2019-Dec-11 14:35 203 3 gusting 5 6.1
2019-Dec-11 14:25 203 3 gusting 6 6.7
2019-Dec-11 14:15 203 5 gusting 6 6.7
2019-Dec-11 14:05 203 4 gusting 6 6.7
2019-Dec-11 13:55 203 3 gusting 6 7.2
2019-Dec-11 13:45 203 4 gusting 7 7.2
2019-Dec-11 13:35 203 5 gusting 8 7.2
2019-Dec-11 13:25 203 4 gusting 7 6.7
2019-Dec-11 13:15 203 3 gusting 6 6.7
2019-Dec-11 13:05 225 2 gusting 6 6.7
2019-Dec-11 12:55 225 4 gusting 9 6.7
2019-Dec-11 12:45 203 4 gusting 12 6.7
2019-Dec-11 12:35 203 4 gusting 7 6.7
2019-Dec-11 12:25 225 6 gusting 10 6.7
2019-Dec-11 12:15 203 6 gusting 10 7.2
2019-Dec-11 12:05 225 4 gusting 7 7.2
2019-Dec-11 11:55 203 5 gusting 9 7.2
2019-Dec-11 11:45 203 5 gusting 7 7.2
2019-Dec-11 11:35 225 3 gusting 6 7.2
2019-Dec-11 11:25 225 4 gusting 6 7.2
2019-Dec-11 11:15 203 6 gusting 9 7.2
2019-Dec-11 11:05 203 5 gusting 9 7.2
2019-Dec-11 10:55 225 4 gusting 8 7.2
2019-Dec-11 10:45 203 3 gusting 6 7.2
2019-Dec-11 10:35 203 4 gusting 8 6.7
2019-Dec-11 10:25 225 5 gusting 9 6.7
2019-Dec-11 10:15 203 5 gusting 8 6.7
2019-Dec-11 10:05 203 5 gusting 7 6.1
2019-Dec-11 09:55 203 3 gusting 6 6.1
2019-Dec-11 09:45 203 4 gusting 6 6.1
2019-Dec-11 09:35 225 4 gusting 6 6.1
2019-Dec-11 09:25 203 3 gusting 6 6.1
2019-Dec-11 09:15 203 3 gusting 5 6.1
2019-Dec-11 09:05 203 3 gusting 6 6.1
2019-Dec-11 08:55 225 3 gusting 6 6.1
2019-Dec-11 08:45 203 3 gusting 6 6.1
2019-Dec-11 08:35 203 4 gusting 6 6.1
2019-Dec-11 08:25 203 3 gusting 6 6.1
2019-Dec-11 08:15 203 3 gusting 6 6.1
2019-Dec-11 07:55 225 3 gusting 5 6.1
2019-Dec-11 07:45 203 2 gusting 5 6.1
2019-Dec-11 07:35 203 3 gusting 6 6.1
2019-Dec-11 07:25 203 4 gusting 6 6.1
2019-Dec-11 07:15 203 4 gusting 6 6.1
2019-Dec-11 07:05 203 4 gusting 7 6.1
2019-Dec-11 06:55 225 5 gusting 7 6.1
2019-Dec-11 06:45 225 5 gusting 8 6.1
2019-Dec-11 06:35 225 4 gusting 9 6.1
2019-Dec-11 06:25 203 5 gusting 10 6.1
2019-Dec-11 06:15 203 4 gusting 9 6.1
2019-Dec-11 06:05 225 3 gusting 7 6.1
2019-Dec-11 05:55 225 4 gusting 10 6.1
2019-Dec-11 05:45 203 5 gusting 8 6.1
2019-Dec-11 05:35 225 4 gusting 7 6.7
2019-Dec-11 05:25 225 4 gusting 6 6.7
2019-Dec-11 05:15 203 4 gusting 7 6.7
2019-Dec-11 05:05 225 3 gusting 6 6.7
2019-Dec-11 04:55 203 3 gusting 6 6.7
2019-Dec-11 04:45 225 5 gusting 9 6.7
2019-Dec-11 04:35 225 4 gusting 8 6.7
2019-Dec-11 04:25 225 4 gusting 8 6.7
2019-Dec-11 04:15 225 5 gusting 10 6.7
2019-Dec-11 04:05 225 4 gusting 7 7.2
2019-Dec-11 03:55 225 5 gusting 8 7.2
2019-Dec-11 03:45 225 3 gusting 6 7.2
2019-Dec-11 03:35 248 6 gusting 10 7.2
2019-Dec-11 03:25 225 5 gusting 10 7.2
2019-Dec-11 03:15 225 7 gusting 15 6.7
2019-Dec-11 03:05 270 6 gusting 13 6.7
2019-Dec-11 02:55 225 8 gusting 14 6.7
2019-Dec-11 02:45 248 10 gusting 19 6.7
2019-Dec-11 02:35 203 15 gusting 26 6.7
2019-Dec-11 02:25 225 9 gusting 17 6.7
2019-Dec-11 02:15 225 13 gusting 21 6.7
2019-Dec-11 02:05 203 12 gusting 21 6.7
2019-Dec-11 01:55 225 8 gusting 17 6.7
2019-Dec-11 01:45 225 11 gusting 18 6.7
2019-Dec-11 01:35 203 11 gusting 18 6.7
2019-Dec-11 01:25 203 12 gusting 19 6.7
2019-Dec-11 01:15 225 13 gusting 21 6.7
2019-Dec-11 01:05 225 13 gusting 21 6.7
2019-Dec-11 00:55 203 13 gusting 24 7.2
2019-Dec-11 00:45 225 14 gusting 22 7.2
2019-Dec-11 00:35 203 13 gusting 23 7.2
2019-Dec-11 00:25 203 15 gusting 25 7.2
2019-Dec-11 00:15 203 15 gusting 22 6.7
2019-Dec-11 00:05 203 13 gusting 23 6.7
2019-Dec-10 23:55 203 14 gusting 22 6.7
2019-Dec-10 23:45 203 14 gusting 24 6.7
2019-Dec-10 23:35 203 14 gusting 22 6.7
2019-Dec-10 23:25 203 16 gusting 29 6.7
2019-Dec-10 23:15 203 17 gusting 26 6.7
2019-Dec-10 23:05 203 14 gusting 23 6.1
2019-Dec-10 22:55 203 15 gusting 25 6.7
2019-Dec-10 22:45 180 17 gusting 26 6.7
2019-Dec-10 22:35 180 16 gusting 25 6.1
2019-Dec-10 22:25 203 17 gusting 26 6.1
2019-Dec-10 22:15 203 18 gusting 26 6.1
2019-Dec-10 22:05 203 17 gusting 26 6.1
2019-Dec-10 21:55 203 17 gusting 26 6.1
2019-Dec-10 21:45 203 17 gusting 27 6.1
2019-Dec-10 21:35 203 17 gusting 25 6.1
2019-Dec-10 21:25 203 17 gusting 26 6.1
2019-Dec-10 21:15 203 18 gusting 29 6.1
2019-Dec-10 21:05 203 17 gusting 27 6.1
2019-Dec-10 20:55 203 18 gusting 27 6.1
2019-Dec-10 20:45 203 19 gusting 29 6.1
2019-Dec-10 20:35 203 19 gusting 31 6.1
2019-Dec-10 20:25 203 19 gusting 28 6.1
2019-Dec-10 20:15 203 17 gusting 28 6.1
2019-Dec-10 20:05 203 17 gusting 26 5.6
2019-Dec-10 19:55 180 17 gusting 25 5.6
2019-Dec-10 19:45 203 15 gusting 24 5.6
2019-Dec-10 19:35 203 17 gusting 27 5.6
2019-Dec-10 19:25 180 17 gusting 24 5.6
2019-Dec-10 19:15 180 19 gusting 27 5.6
2019-Dec-10 19:05 180 18 gusting 28 5.6
2019-Dec-10 18:55 203 19 gusting 29 5.6
2019-Dec-10 18:45 203 18 gusting 27 5.6
2019-Dec-10 18:35 180 19 gusting 25 5.6
2019-Dec-10 18:25 203 18 gusting 26 5.6
2019-Dec-10 18:15 180 19 gusting 26 5.0
2019-Dec-10 18:05 180 18 gusting 27 5.0
2019-Dec-10 17:55 180 16 gusting 23 5.0
2019-Dec-10 17:45 180 17 gusting 25 5.0
2019-Dec-10 17:35 203 19 gusting 26 5.0
2019-Dec-10 17:25 180 18 gusting 26 5.0
2019-Dec-10 17:15 180 17 gusting 25 5.6
2019-Dec-10 17:05 203 17 gusting 25 5.6
2019-Dec-10 16:55 180 17 gusting 24 5.6
2019-Dec-10 16:45 180 16 gusting 24 5.6
2019-Dec-10 16:35 180 17 gusting 26 5.6
2019-Dec-10 16:25 180 16 gusting 23 5.0
2019-Dec-10 16:15 180 17 gusting 26 5.0
2019-Dec-10 16:05 180 16 gusting 28 5.0
2019-Dec-10 15:55 180 15 gusting 28 5.0
2019-Dec-10 15:45 180 15 gusting 23 5.0
2019-Dec-10 15:35 180 13 gusting 20 5.0
2019-Dec-10 15:25 180 15 gusting 23 5.0
2019-Dec-10 15:15 203 13 gusting 20 5.0
2019-Dec-10 15:05 180 16 gusting 24 5.0
2019-Dec-10 14:55 203 13 gusting 21 5.0
2019-Dec-10 14:45 203 14 gusting 21 5.0
2019-Dec-10 14:35 180 13 gusting 19 5.0
2019-Dec-10 14:25 180 12 gusting 19 5.6
2019-Dec-10 14:15 203 13 gusting 22 5.6
2019-Dec-10 14:05 203 12 gusting 20 5.6
2019-Dec-10 13:55 203 13 gusting 19 5.6
2019-Dec-10 13:45 180 12 gusting 19 5.6
2019-Dec-10 13:35 203 13 gusting 23 5.6
2019-Dec-10 13:25 225 12 gusting 19 5.6
2019-Dec-10 13:15 203 13 gusting 19 5.6
2019-Dec-10 13:05 203 13 gusting 19 5.6
2019-Dec-10 12:55 203 12 gusting 18 5.6
2019-Dec-10 12:45 203 11 gusting 16 5.6
2019-Dec-10 12:35 203 12 gusting 17 5.6
2019-Dec-10 12:25 203 13 gusting 21 5.6
2019-Dec-10 12:15 203 13 gusting 19 6.1
2019-Dec-10 12:05 203 13 gusting 24 6.1
2019-Dec-10 11:55 203 13 gusting 19 6.1
2019-Dec-10 11:45 203 12 gusting 16 6.1
2019-Dec-10 11:35 203 11 gusting 17 6.1
2019-Dec-10 11:25 203 11 gusting 16 6.1
2019-Dec-10 11:15 225 8 gusting 19 6.1
2019-Dec-10 11:05 225 9 gusting 16 6.1
2019-Dec-10 10:55 225 8 gusting 17 6.1
2019-Dec-10 10:45 225 8 gusting 13 6.1
2019-Dec-10 10:35 203 8 gusting 13 6.1
2019-Dec-10 10:25 203 6 gusting 16 6.1
2019-Dec-10 10:15 203 8 gusting 15 5.6
2019-Dec-10 10:05 225 8 gusting 15 5.6
2019-Dec-10 09:55 203 7 gusting 13 5.6
2019-Dec-10 09:45 203 7 gusting 13 5.0
2019-Dec-10 09:35 203 7 gusting 11 5.0
2019-Dec-10 09:25 225 6 gusting 9 4.4
2019-Dec-10 09:15 203 6 gusting 9 4.4
2019-Dec-10 09:05 203 5 gusting 7 4.4
2019-Dec-10 08:55 203 5 gusting 8 4.4
2019-Dec-10 08:45 225 4 gusting 6 4.4
2019-Dec-10 08:35 225 5 gusting 9 3.9
2019-Dec-10 08:25 203 3 gusting 6 3.3
2019-Dec-10 08:15 203 3 gusting 6 2.8
2019-Dec-10 08:05 203 3 gusting 5 2.8
2019-Dec-10 07:55 203 3 gusting 5 2.8
2019-Dec-10 07:45 203 3 gusting 6 3.3
2019-Dec-10 07:35 203 3 gusting 6 3.3
2019-Dec-10 07:25 203 1 gusting 5 3.3
2019-Dec-10 07:15 203 3 gusting 6 3.3
2019-Dec-10 07:05 203 1 gusting 5 3.3
2019-Dec-10 06:55 203 1 gusting 3 3.9
2019-Dec-10 06:45 203 0 gusting 2 4.4
2019-Dec-10 06:35 225 1 gusting 3 4.4
2019-Dec-10 06:25 225 1 gusting 4 5.0
2019-Dec-10 06:15 225 1 gusting 6 5.0
2019-Dec-10 06:05 225 1 gusting 3 5.0
2019-Dec-10 05:55 225 1 gusting 3 5.0
2019-Dec-10 05:45 225 1 gusting 3 4.4
2019-Dec-10 05:35 4.4
2019-Dec-10 05:25 225 0 gusting 1 4.4
2019-Dec-10 05:15 225 0 gusting 2 3.9
2019-Dec-10 05:05 225 0 gusting 3 3.9
2019-Dec-10 04:55 3.3
2019-Dec-10 04:45 248 0 gusting 2 3.3
2019-Dec-10 04:35 3.3
2019-Dec-10 04:25 3.3
2019-Dec-10 04:15 3.9
2019-Dec-10 04:05 3.9
2019-Dec-10 03:55 248 0 gusting 2 3.9
2019-Dec-10 03:45 270 0 gusting 3 3.9
2019-Dec-10 03:35 248 0 gusting 2 3.9
2019-Dec-10 03:25 270 0 gusting 2 3.9
2019-Dec-10 03:15 3.9
2019-Dec-10 03:05 3.9
2019-Dec-10 02:55 4.4
2019-Dec-10 02:45 248 0 gusting 1 4.4
2019-Dec-10 02:35 5.0
2019-Dec-10 02:25 293 1 gusting 3 5.0
2019-Dec-10 02:15 293 1 gusting 4 5.0
2019-Dec-10 02:05 293 1 gusting 3 5.0
2019-Dec-10 01:55 293 1 gusting 4 5.0
2019-Dec-10 01:45 293 3 gusting 6 4.4
2019-Dec-10 01:35 315 4 gusting 6 4.4
2019-Dec-10 01:25 293 2 gusting 4 3.9
2019-Dec-10 01:15 293 2 gusting 5 4.4
2019-Dec-10 01:05 315 3 gusting 5 4.4
2019-Dec-10 00:55 293 3 gusting 5 4.4
2019-Dec-10 00:45 293 2 gusting 5 4.4
2019-Dec-10 00:35 315 3 gusting 5 4.4
2019-Dec-10 00:25 315 4 gusting 6 5.0
2019-Dec-10 00:15 315 4 gusting 6 5.0
2019-Dec-10 00:05 315 4 gusting 6 5.6
2019-Dec-09 23:55 315 6 gusting 12 5.6
2019-Dec-09 23:45 315 6 gusting 10 5.6
2019-Dec-09 23:35 315 10 gusting 18 5.6
2019-Dec-09 23:25 315 2 gusting 4 5.6
2019-Dec-09 23:15 315 2 gusting 4 5.6
2019-Dec-09 23:05 315 4 gusting 6 5.6
2019-Dec-09 22:55 315 5 gusting 7 5.6
2019-Dec-09 22:45 315 6 gusting 12 5.6
2019-Dec-09 22:35 315 6 gusting 11 5.6
2019-Dec-09 22:25 315 6 gusting 11 5.6
2019-Dec-09 22:15 315 6 gusting 10 5.6
2019-Dec-09 22:05 315 6 gusting 10 5.6
2019-Dec-09 21:55 315 6 gusting 10 6.1
2019-Dec-09 21:45 315 6 gusting 9 6.1
2019-Dec-09 21:35 315 8 gusting 14 6.1
2019-Dec-09 21:25 315 9 gusting 17 6.1
2019-Dec-09 21:15 315 7 gusting 14 6.1
2019-Dec-09 21:05 315 7 gusting 13 5.6
2019-Dec-09 20:55 315 6 gusting 12 5.6
2019-Dec-09 20:45 315 7 gusting 13 6.1
2019-Dec-09 20:35 315 6 gusting 11 6.1
2019-Dec-09 20:25 315 6 gusting 13 6.1
2019-Dec-09 20:15 315 6 gusting 12 5.6
2019-Dec-09 20:05 315 6 gusting 13 5.6